TimeMDT,TemperatureF,Dew PointF,Humidity,Sea Level PressureIn,VisibilityMPH,Wind Direction,Wind SpeedMPH,Gust SpeedMPH,PrecipitationIn,Events,Conditions,WindDirDegrees,DateUTC
12:15 AM,61.5,8.8,12,29.82,10.0,NW,8.1,-,N/A,,Clear,310,2013-04-30 06:15:00
12:35 AM,59.5,8.1,13,29.83,10.0,NW,9.2,-,N/A,,Clear,310,2013-04-30 06:35:00
12:55 AM,61.5,8.4,12,29.83,10.0,NW,9.2,-,N/A,,Clear,310,2013-04-30 06:55:00
1:15 AM,61.9,8.1,12,29.83,10.0,NW,8.1,-,N/A,,Clear,310,2013-04-30 07:15:00
1:35 AM,61.2,8.1,12,29.83,10.0,WNW,8.1,-,N/A,,Clear,300,2013-04-30 07:35:00
1:55 AM,62.2,9.3,12,29.84,10.0,West,10.4,-,N/A,,Clear,270,2013-04-30 07:55:00
2:15 AM,66.0,11.3,12,29.84,10.0,WNW,6.9,17.3,N/A,,Clear,290,2013-04-30 08:15:00
2:35 AM,66.6,12.6,12,29.84,10.0,NW,8.1,-,N/A,,Clear,310,2013-04-30 08:35:00
2:55 AM,65.8,12.6,13,29.84,10.0,NNW,4.6,-,N/A,,Clear,330,2013-04-30 08:55:00
3:15 AM,63.5,12.4,14,29.84,10.0,Calm,Calm,-,N/A,,Clear,0,2013-04-30 09:15:00
3:35 AM,63.9,12.4,13,29.84,10.0,Calm,Calm,-,N/A,,Clear,0,2013-04-30 09:35:00
3:55 AM,65.5,12.7,13,29.85,10.0,WSW,4.6,-,N/A,,Clear,240,2013-04-30 09:55:00
4:15 AM,63.9,12.2,13,29.85,10.0,WSW,9.2,-,N/A,,Clear,240,2013-04-30 10:15:00
4:35 AM,67.8,13.1,12,29.84,10.0,West,16.1,29.9,N/A,,Clear,260,2013-04-30 10:35:00
4:55 AM,67.3,12.7,12,29.85,10.0,West,12.7,20.7,N/A,,Clear,270,2013-04-30 10:55:00
5:15 AM,68.5,13.1,12,29.85,10.0,West,13.8,31.1,N/A,,Clear,270,2013-04-30 11:15:00
5:35 AM,66.2,12.7,13,29.85,10.0,West,16.1,19.6,N/A,,Clear,260,2013-04-30 11:35:00
5:55 AM,67.3,13.1,12,29.86,10.0,West,17.3,24.2,N/A,,Clear,270,2013-04-30 11:55:00
6:15 AM,66.2,12.7,13,29.87,10.0,NE,3.5,16.1,N/A,,Clear,50,2013-04-30 12:15:00
6:35 AM,64.4,12.4,13,29.87,10.0,Calm,Calm,-,N/A,,Clear,0,2013-04-30 12:35:00
6:55 AM,64.6,12.7,13,29.89,10.0,South,3.5,-,N/A,,Clear,170,2013-04-30 12:55:00
7:15 AM,63.5,12.9,14,29.89,10.0,SSW,4.6,-,N/A,,Clear,210,2013-04-30 13:15:00
7:35 AM,64.8,13.1,13,29.90,10.0,SSW,3.5,-,N/A,,Clear,210,2013-04-30 13:35:00
7:55 AM,68.0,13.5,12,29.90,10.0,East,3.5,-,N/A,,Clear,90,2013-04-30 13:55:00
8:15 AM,66.2,14.0,13,29.91,10.0,East,6.9,-,N/A,,Clear,90,2013-04-30 14:15:00
8:35 AM,68.0,13.8,12,29.91,10.0,East,8.1,-,N/A,,Clear,80,2013-04-30 14:35:00
8:55 AM,70.9,14.0,11,29.91,10.0,East,4.6,-,N/A,,Clear,90,2013-04-30 14:55:00
9:15 AM,72.3,13.5,11,29.91,10.0,Calm,Calm,-,N/A,,Clear,0,2013-04-30 15:15:00
9:35 AM,73.0,13.6,10,29.91,10.0,Calm,Calm,-,N/A,,Clear,0,2013-04-30 15:35:00
9:55 AM,74.8,14.0,10,29.91,10.0,Calm,Calm,-,N/A,,Clear,0,2013-04-30 15:55:00
10:15 AM,77.5,13.3,9,29.91,10.0,NNE,3.5,-,N/A,,Clear,20,2013-04-30 16:15:00
10:35 AM,79.0,13.1,8,29.90,10.0,Calm,Calm,-,N/A,,Clear,0,2013-04-30 16:35:00
10:55 AM,83.5,12.2,7,29.90,10.0,WNW,17.3,24.2,N/A,,Clear,300,2013-04-30 16:55:00
11:15 AM,84.0,12.0,7,29.89,10.0,West,20.7,25.3,N/A,,Clear,280,2013-04-30 17:15:00
11:35 AM,83.7,12.2,7,29.89,10.0,WNW,19.6,24.2,N/A,,Clear,290,2013-04-30 17:35:00
11:55 AM,82.6,11.5,7,29.89,10.0,West,17.3,21.9,N/A,,Clear,280,2013-04-30 17:55:00
12:15 PM,83.7,12.0,7,29.88,10.0,WNW,17.3,21.9,N/A,,Clear,300,2013-04-30 18:15:00
12:35 PM,83.7,12.2,7,29.87,10.0,WNW,8.1,21.9,N/A,,Clear,290,2013-04-30 18:35:00
1:15 PM,85.5,12.2,6,29.85,10.0,WSW,15.0,26.5,N/A,,Clear,250,2013-04-30 19:15:00
1:35 PM,85.1,11.3,6,29.84,10.0,West,21.9,25.3,N/A,,Clear,260,2013-04-30 19:35:00
1:55 PM,85.3,10.9,6,29.84,10.0,WSW,19.6,24.2,N/A,,Clear,250,2013-04-30 19:55:00
2:15 PM,86.4,10.8,6,29.83,10.0,West,9.2,17.3,N/A,,Clear,280,2013-04-30 20:15:00
2:35 PM,85.5,11.3,6,29.82,10.0,WSW,20.7,27.6,N/A,,Clear,240,2013-04-30 20:35:00
2:55 PM,86.4,10.8,6,29.82,10.0,WSW,18.4,28.8,N/A,,Clear,250,2013-04-30 20:55:00
3:15 PM,87.6,8.8,5,29.81,10.0,WSW,27.6,33.4,N/A,,Clear,240,2013-04-30 21:15:00
3:35 PM,88.0,8.2,5,29.81,10.0,WSW,19.6,31.1,N/A,,Clear,250,2013-04-30 21:35:00
3:55 PM,87.6,7.9,5,29.79,10.0,SW,16.1,28.8,N/A,,Clear,230,2013-04-30 21:55:00
4:15 PM,87.8,7.9,5,29.78,10.0,WNW,16.1,27.6,N/A,,Clear,290,2013-04-30 22:15:00
4:35 PM,88.0,8.4,5,29.78,10.0,SW,15.0,27.6,N/A,,Clear,230,2013-04-30 22:35:00
4:55 PM,87.1,8.4,5,29.77,10.0,West,23.0,27.6,N/A,,Clear,270,2013-04-30 22:55:00
5:15 PM,87.8,9.0,5,29.77,10.0,West,23.0,28.8,N/A,,Clear,270,2013-04-30 23:15:00
5:35 PM,87.4,9.3,5,29.77,10.0,West,13.8,24.2,N/A,,Clear,260,2013-04-30 23:35:00
5:55 PM,85.8,10.0,6,29.76,10.0,SW,11.5,19.6,N/A,,Clear,230,2013-04-30 23:55:00
6:15 PM,87.1,10.2,6,29.76,10.0,WSW,21.9,27.6,N/A,,Clear,250,2013-05-01 00:15:00
6:35 PM,85.8,9.5,6,29.77,10.0,West,11.5,20.7,N/A,,Clear,270,2013-05-01 00:35:00
6:55 PM,85.8,7.9,5,29.77,10.0,West,15.0,24.2,N/A,,Clear,270,2013-05-01 00:55:00
7:15 PM,84.0,7.5,5,29.77,10.0,WNW,17.3,23.0,N/A,,Clear,300,2013-05-01 01:15:00
7:35 PM,81.3,7.2,6,29.77,10.0,WNW,16.1,21.9,N/A,,Clear,300,2013-05-01 01:35:00
7:55 PM,79.9,6.8,6,29.79,10.0,West,16.1,23.0,N/A,,Clear,280,2013-05-01 01:55:00
8:15 PM,77.7,7.2,7,29.79,10.0,West,15.0,-,N/A,,Clear,280,2013-05-01 02:15:00
8:35 PM,76.8,7.5,7,29.80,10.0,West,15.0,-,N/A,,Clear,280,2013-05-01 02:35:00
8:55 PM,75.0,8.1,8,29.81,10.0,West,11.5,-,N/A,,Clear,280,2013-05-01 02:55:00
9:15 PM,74.1,8.4,8,29.82,10.0,West,12.7,-,N/A,,Clear,280,2013-05-01 03:15:00
9:35 PM,74.3,9.5,8,29.83,10.0,West,15.0,-,N/A,,Clear,270,2013-05-01 03:35:00
9:55 PM,73.2,9.5,9,29.84,10.0,West,13.8,-,N/A,,Clear,280,2013-05-01 03:55:00
10:15 PM,73.0,9.7,9,29.85,10.0,West,15.0,20.7,N/A,,Clear,280,2013-05-01 04:15:00
10:35 PM,71.6,9.5,9,29.86,10.0,West,13.8,-,N/A,,Clear,280,2013-05-01 04:35:00
10:55 PM,70.7,9.1,9,29.86,10.0,West,11.5,-,N/A,,Clear,280,2013-05-01 04:55:00
11:15 PM,68.7,8.6,10,29.87,10.0,West,9.2,-,N/A,,Clear,270,2013-05-01 05:15:00
11:55 PM,68.9,8.8,10,29.88,10.0,West,9.2,-,N/A,,Clear,270,2013-05-01 05:55:00